User: anonymous   Login
Location: Unspecified
(0.0000°N, 0.0000°E)
Time: 08:57:06
(UTC+00:00)
Language:

CP4 - Orbit

View from above orbital plane
View from above orbital plane
View from above satellite
View from above satellite

Ground track
Ground track

The orbit data is extracted from the following two-line orbital elements,

1 31132U 07012Q   17204.58481315 +.00000103 +00000-0 +30831-4 0  9992
2 31132 098.0323 159.2142 0081601 026.3495 334.1820 14.58846199545769
Epoch (UTC): 23 July 2017 14:02:07
Eccentricity: 0.0081601
inclination: 98.0323°
perigee height: 639 km
apogee height: 754 km
right ascension of ascending node: 159.2142°
argument of perigee: 26.3495°
revolutions per day: 14.58846199
mean anomaly at epoch: 334.1820°
orbit number at epoch: 54576

The dashed part of the orbit path shows where the satellite is in the earth's shadow,  

DLR